PEGASUS DEB

Satellite information

Favourite Embed

Satellite Type and Status

DEBRISIN ORBIT

Key statistics

Satellite PEGASUS DEB at a glance.

Uptime

11435

Days in orbit

Revolutions

≈ 14.0

Per day

Orbit

LEO

Low Earth Orbit

Inclination

82.1

Latest

Satellite identification and parameters

Extended collection of information and parameters for PEGASUS DEB.

Object identification

Identified? True

Debris? True

Object name: PEGASUS DEB

International designator: 1994-029AFQ

Object number (NORAD): 39917

Object ID (CCSDS): 39917

Country: UNITED STATES OF AMERICA (US)

Current information (Y/N): Y

RCS size: SMALL

Orbital parameters

Period: 103.1 minutes

Inclination: 82.131 deg

SMA: 7283.352 km

Apoapsis: 1252.527 km

Periapsis: 557.907 km

RAAN: 192.8498 deg

Eccentricy: 0.04768547

Argument of periapsis: 145.4933 deg

Mean anomaly: 217.8197 deg

Mean motion: 13.96708674 rev/day

Mean motion (dot): 0.00005903 rev/day2

B* drag term: 0.0015988475 1/REarth

Two-line elements (TLE)

Creation date: Sept. 6, 2025, 2:09 a.m.

Reference frame: TEME

Reference center: EARTH

Epoch: Sept. 5, 2025, 8:08 p.m. UTC

TLE line 0: 0 PEGASUS DEB

TLE line 1: 1 39917U 94029AFQ 25248.83932325 .00005903 00000-0 15988-2 0 9999

TLE line 2: 2 39917 82.1310 192.8498 0476855 145.4933 217.8197 13.96708674 69271

Live tracking on map

Real-time ground track for satellite PEGASUS DEB.

In-orbit conjunctions

A list of the most updated potential collisions computed for object PEGASUS DEB.

Target Orbit TCA Probability of collision Miss distance Type
COSMOS 1048 LEO 2025-01-07 09:23:06 0.0001874086 419.0 (m) PAYLOAD
FENGYUN 1C DEB SSO 2024-09-25 22:08:25 0.001062393 158.0 (m) DEBRIS
OBJECT M SSO 2024-07-06 22:56:55 0.0006904201 122.0 (m) UNKNOWN

Associated space launch

PEGASUS DEB was lifted into orbit during the mission ‘Pegasus HAPS | Space Test Experiments Platform 2 (STEP-2)’, on board a Pegasus HAPS space rocket.

The launch took place on May 19, 1994, 5:03 p.m. from Edwards Air Force Base.

For more information about the launch, click the button.

Launch to space Pegasus HAPS | Space Test Experiments Platform 2 (STEP-2)
Pegasus HAPS | Space Test Experiments Platform 2 (STEP-2)

Agency: N/A

Status: Launch Successful

Launch date: May 19, 1994, 5:03 p.m. UTC

Rocket: Pegasus HAPS

Launch pad: Edwards Air Force Base

Location: Air launch to orbit

...

Latest news about this satellite

There are no fresh news available about this satellite. Check back as we update our databases every day.


Newsletter sign-up

Weekly statistics, charts and insights to help you stay on top of the space industry.